Regional Weather Roundup
Issued by NWS

Home | Current Version | Previous Version | Text Only | Print | Product List | Glossary On
Versions: 1 2 3 4 5 6 7 8 9 10 11 12 13 14 15 16 17 18 19 20 21 22 23 24 25 26 27 28 29 30 31 32 33 34 35 36 37 38 39 40 41 42 43 44 45 46 47 48 49 50
000
ASUS43 KDTX 270110
RWRMI
MICHIGAN HOURLY REGIONAL WEATHER ROUNDUP
NATIONAL WEATHER SERVICE DETROIT/PONTIAC MI
800 PM EST MON JAN 26 2015

NOTE: "FAIR" INDICATES FEW OR NO CLOUDS BELOW 12,000 FEET WITH NO
SIGNIFICANT WEATHER AND/OR OBSTRUCTION TO VISIBILITY.

MIZ047>049-052>055-059>063-066>070-074>076-081>083-270200-
SOUTHEAST LOWER MICHIGAN

CITY           SKY/WX    TMP DP  RH WIND       PRES   REMARKS
ADRIAN         PTCLDY    18   9  68 CALM      29.94R
ALMA           PTCLDY    16  11  79 NE6       29.98R WCI   8
ANN ARBOR      CLEAR     18  10  71 SE8       29.94R WCI   8
BAD AXE        CLEAR      9   5  83 CALM      29.99R
CARO           CLEAR     14  10  83 CALM      29.98R
DETROIT CITY   CLEAR     20  10  65 NE7       29.97R WCI  11
DETROIT        PTCLDY    18   9  68 CALM      29.97R
FLINT          CLEAR     19  11  70 E12       29.96R WCI   7
GROSSE ILE     PTCLDY    14   9  79 CALM      29.95R
HILLSDALE      PTCLDY    16   6  62 CALM      29.90R
HOWELL         PTCLDY    18   8  64 N3        29.93R

CITY           SKY/WX    TMP DP  RH WIND       PRES   REMARKS
JACKSON        PTCLDY    20   9  62 NE5       29.92R WCI  13
LAMBERTVILLE   CLEAR     18  10  73 CALM      29.95S
LANSING        PTCLDY    18   8  65 NE5       29.96R WCI  11
LAPEER         MOCLDY    15  10  83 CALM      29.97R
MASON          PTCLDY    19  10  68 N5        29.94R WCI  12
MONROE         PTCLDY    16  10  79 E2        29.94S
MT. CLEMENS    MOCLDY    16  10  79 N6        29.95R WCI   7
PONTIAC        PTCLDY    16  10  77 NE8       29.94R WCI   5
PORT HOPE        N/A     21   8  57 E13       29.98R WCI   9
PORT HURON     CLOUDY    16  12  86 CALM      29.98R
TRI CITIES     CLEAR     17  11  77 NE7       29.99R WCI   8
TROY           CLEAR     20  11  68 NE6       29.98R WCI  12
SAGINAW HB     CLEAR     18  14  86 NE5       29.99R WCI  11
$$
MIZ043>046-050>051-056>058-064>065-071>073-077>080-270200-
SOUTHWEST LOWER MICHIGAN

CITY           SKY/WX    TMP DP  RH WIND       PRES   REMARKS
BATTLE CREEK   MOCLDY    23   8  52 CALM      29.93R
BENTON HARBOR  CLOUDY    23  14  68 CALM      29.94R
BIG RAPIDS     CLOUDY    18  10  68 E3        29.94S
COLDWATER      CLOUDY    18   8  62 CALM      29.93R
FREMONT        CLOUDY    21   4  47 E5        29.95R WCI  14
HOLLAND        MOCLDY    24   9  52 E6        29.95R WCI  17
GRAND RAPIDS   CLOUDY    20   8  60 E7        29.95R WCI  11
IONIA          MOCLDY    18  10  70 NE3       29.95R
KALAMAZOO      CLOUDY    23   3  42 CALM      29.94R
LUDINGTON      CLOUDY    21   9  59 CALM      29.95S
MARSHALL       PTCLDY    20   8  58 CALM      29.93R
MOUNT PLEASANT CLEAR     16   9  75 E3        29.98R
MUSKEGON       CLOUDY    22   8  55 E3        29.96R
SOUTH HAVEN    CLOUDY    25   8  48 CALM      29.94R
$$
MIZ016>042-270200-
NORTHERN LOWER MICHIGAN

CITY           SKY/WX    TMP DP  RH WIND       PRES   REMARKS
ALPENA         CLOUDY    14  10  84 NE5       30.01F WCI   6
BEAVER ISLAND  CLOUDY    20  12  69 E10       29.99R WCI   9
BELLAIRE       CLEAR     19   8  62 CALM      29.98R
CADILLAC       CLOUDY    18   8  63 SE7       29.90S WCI   9
CHARLEVOIX     CLEAR     18  10  73 E6        30.01R WCI   9
FRANKFORT      CLOUDY    15  10  80 CALM      29.95R
GAYLORD        CLOUDY    16   8  71 E8        29.94R WCI   5
GRAYLING       FLURRIES  15   8  73 E5        29.96R WCI   8
HARBOR SPRINGS CLEAR     16   8  68 E7        29.99R WCI   7
HOUGHTON LAKE  CLEAR     14   8  77 E8        29.95R WCI   3
MANISTEE       MOCLDY    18   3  53 E6        29.95S WCI   9
OSCODA         PTCLDY    18   8  65 E5        30.00S WCI  11
PELLSTON       CLOUDY    19  10  68 E7        30.01R WCI  10
ROGERS CITY    FLURRIES  17  15  89 CALM      30.04R
TRAVERSE CITY  PTCLDY    21   7  54 SE3       29.95R
$$
MIZ007>008-015-270200-
EASTERN UPPER MICHIGAN

CITY           SKY/WX    TMP DP  RH WIND       PRES   REMARKS
KINROSS        PTCLDY     9   3  78 E12       30.03R WCI  -6
MACKINAC ISLAN FLURRIES  21  12  68 SE7       30.01R WCI  12
NEWBERRY       CLOUDY    14  10  85 E12       30.00R WCI   0
S. S. MARIE    MOCLDY    10  -5  50 E7        30.05R WCI  -1
MUNISING         N/A     21  10  62 SE8       29.96R WCI  11
$$
MIZ004>006-011>014-085-270200-
CENTRAL UPPER MICHIGAN

CITY           SKY/WX    TMP DP  RH WIND       PRES   REMARKS
MANISTIQUE     CLOUDY    20  13  73 E7        29.98R WCI  12
ESCANABA       CLOUDY    25  10  54 SE10      29.94R WCI  15
MENOMINEE      CLOUDY    25  21  86 SE8       29.92R WCI  16
SAWYER-GWINN   LGT SNOW  19  14  79 S12       29.88S WCI   7
$$
MIZ001>003-009>011-084-270200-
WESTERN UPPER MICHIGAN

CITY           SKY/WX    TMP DP  RH WIND       PRES   REMARKS
IRON MOUNTAIN  LGT SNOW  22  18  85 SE5       29.87R FOG     WCI  16
HOUGHTON       LGT SNOW  21  18  88 SE6       29.87R VSB 1   WCI  13
COPPER HARBOR    N/A     24  20  84 SW8G18    29.90R WCI  15
IRONWOOD       CLOUDY    21  18  86 S3        29.82R
$$

ABBREVIATIONS USED IN REMARKS
   TC - TEMPERATURE IN CELSIUS
  WCI - WIND CHILL INDEX
   HX - HEAT INDEX
  VSB - VISIBILITY



USA.gov is the U.S. government's official web portal to all federal, state and local government web resources and services.